If you wish to contribute or participate in the discussions about articles you are invited to join SKYbrary as a registered user

 Actions

Puerto Cabezas Airport

From SKYbrary Wiki

MNPC
Airport
ICAO: MNPC – IATA: PUZ
Summary
Name Puerto Cabezas Airport
Region South America and Caribbean
Territory Nicaragua NI.gif
Location Puerto Cabezas, North Caribbean Coast Autonomous Region
Serving Puerto Cabezas
Elevation 21.031 m
69 ft21.031 m
Coordinates 14° 2' 31.18" N, 83° 22' 49.94" W
Runways
Designator Length Width Surface ROPS
9/27 2478 m8,129.921 ft
51 m167.323 ft
ASP /


METAR
Observation MNPC 262000Z 12008KT 7000 FEW016 30/24 Q1011 HZ
Station Puerto Cabezas
Date/Time 26 February 2020 20:00:00
Wind direction 120°
Wind speed 08 kts
Lowest cloud amount few clouds
Temperature 30°C
Dew point 24°C
Humidity 70%
QNH 1011 hPa
Weather condition n/a

Puerto Cabezas Airport is an airport that serves Puerto Cabezas, Nicaragua. Also known as Bilwi Airport.

Climatology

Tropical monsoon climate (Köppen climate classification Am)

Maps

Terrain

Loading map...

Airport Layout

Loading map...


Accidents & Serious Incidents at or in vicinity of MNPC

None on SKYbrary